Vertical_Velocity
7 -1 -4 4 2 0 0 4 1 2 0 1 1 2 -1 -1 1 0 1 0 -1 0 0 -0 2 4 -2 2 10 10 2 14 3 -4 -1 2 -1 -2 -10 -16 -20 -15 -3
-4 -3 4 3 -1 -3 -1 -0 -1 -0 1 3 4 -1 2 5 1 0 -0 3 3 1 -0 2 -4 2 -1 -4 -2 3 2 3 7 -0 12 7 0 -5 -1 -6 -8 -7 -6
6 4 2 -1 0 1 -0 1 -1 -2 -0 -1 1 1 1 3 0 1 -0 -0 1 3 4 3 1 2 0 1 -3 -5 4 3 3 4 -10 9 8 -1 -4 -1 -2 0 7
-2 -1 -2 -3 -2 -1 -2 -4 -1 -2 -1 1 1 -0 0 -2 -1 -1 0 1 0 -1 3 2 1 -1 -1 5 3 -3 -0 -4 -1 3 1 -1 7 4 8 7 4 4 0
-5 -3 -4 -5 -4 -1 -2 -2 -4 -4 0 -1 -1 1 1 2 0 -2 1 1 1 -1 0 1 2 3 4 2 -1 -0 -0 -2 -3 -1 -0 -0 -3 -2 -2 4 -2 -0 -4
-2 -1 -0 -0 -2 -2 -1 0 1 -1 -2 -2 0 -1 -2 2 -0 1 1 1 0 -3 -3 -2 0 1 0 2 2 2 6 4 4 11 -2 -3 1 0 2 5 6 7 -2
-1 -1 0 0 -0 -3 -2 -2 -2 -1 1 1 1 2 0 -1 3 3 2 1 -1 -0 -1 -1 -1 -1 -1 -3 -2 2 2 3 6 1 1 -4 -2 2 5 0 -0 10 -1
1 1 -0 -0 -1 -1 -2 -2 -1 -2 -2 -1 -1 -1 0 -0 -2 -0 -0 -0 -0 0 0 -1 -1 -3 -1 1 1 0 -0 1 -1 4 6 -6 -0 5 4 7 6 3 1
-1 2 1 -1 -0 0 1 1 0 -1 -1 -2 -2 -1 -1 -1 1 1 -1 -1 -3 -0 1 2 3 0 -0 -1 2 -0 -2 1 5 3 1 -1 -1 6 6 8 -3 10 -7
-0 1 -2 -1 -1 0 -1 -3 0 -1 1 0 0 1 -1 -0 -0 0 -1 -2 -1 -2 -2 -0 2 2 3 3 3 0 -4 -0 -1 -3 -0 6 7 -3 4 2 3 -0 9
1 -1 -1 -0 -1 -1 -1 -1 -2 -3 -3 -2 -1 -1 -1 2 2 -2 -3 -0 -2 -1 0 -4 1 6 3 2 5 2 -2 0 1 1 0 -0 -1 -2 -3 -2 0 5 2
-0 -1 0 1 -1 -2 -4 -1 0 0 -0 -0 3 2 6 4 -2 -0 1 1 2 -1 -4 -3 -5 -0 -1 -3 -3 2 3 1 -4 -3 -1 -2 -4 -6 -5 -1 -1 -2 -2
-2 -1 -0 -3 -5 0 -2 -0 1 -2 0 2 -0 -1 -4 -2 -2 -2 -1 -1 4 -1 -2 -4 -6 -4 -3 -6 2 -2 0 -1 0 -0 0 -6 -0 5 2 -5 1 2 -1
-0 -2 -3 -3 -1 0 -2 -3 -2 -0 0 1 -1 -1 0 -0 -1 -1 -2 -3 -4 -2 -3 -2 -1 -2 2 1 -1 2 3 3 4 1 -3 -0 -1 0 3 5 -2 1 8
-2 -3 -1 1 -0 -0 -3 -2 -2 -2 -4 -1 -0 -1 -3 -4 -5 -4 -4 -4 -5 -3 -3 -1 0 0 -2 2 -1 -3 -1 0 4 5 6 -1 -1 2 -3 6 1 -1 2
-3 -1 -3 -0 -0 -3 -5 -2 -3 2 -1 -7 -4 -2 -0 1 1 1 -0 -0 1 0 -1 -3 -2 -3 -3 -4 -1 1 1 2 2 4 3 2 -1 0 -1 -2 3 4 1
-2 1 0 4 -2 -3 -2 -0 -2 2 -0 -3 -1 -4 -3 -1 -1 0 1 1 -2 -0 -1 -2 -1 1 1 1 0 -1 -4 -2 1 1 0 -2 3 2 3 -4 0 3 -1
3 -1 -0 2 4 -1 -1 0 8 9 -0 0 -1 -4 1 -2 -1 -1 -1 3 -1 -3 -3 -4 -0 1 -0 -1 -2 -1 -1 -4 -4 -4 -3 -0 0 4 1 -0 0 1 5
5 -1 -1 1 3 9 4 -2 4 7 3 0 -4 -0 -1 -4 -2 -2 -3 -5 -5 -3 -2 -1 1 2 -0 -1 -0 -1 -1 2 -1 -4 -3 0 -1 0 -2 -1 -2 -1 9
-1 8 -6 -0 5 2 0 -6 2 6 3 2 1 -1 -2 -2 -2 -2 -3 -3 -3 -0 -1 0 1 -0 0 -1 -1 -1 -1 -1 0 -0 0 -1 0 1 -3 4 2 0 3
0 2 3 -1 -2 -7 -0 -3 9 3 -3 -3 2 1 -2 -3 -5 -3 -2 -2 -3 -2 -2 -0 -1 -2 -2 -3 1 1 -1 0 -0 2 -2 0 2 -3 2 3 1 -1 7
-5 2 1 -2 -8 -1 -1 -3 7 3 -3 -1 1 0 -3 -0 -0 -2 -1 -3 -3 -3 -1 -2 1 -0 -2 -1 -1 -2 -4 -2 -1 0 0 0 -1 -0 1 -0 -2 -2 -2
0 8 -4 -3 -8 -3 1 -1 1 0 -1 -2 -2 -1 1 -2 -2 -3 -3 -2 -1 0 -0 0 -1 -3 1 1 0 -3 -5 -3 -1 -1 -3 1 -4 -4 -2 0 3 2 -0
2 5 -4 0 -4 -3 -6 1 -4 -4 -2 -3 -3 -2 -4 -1 2 -1 -4 -4 -4 0 0 2 0 -3 -2 2 3 2 -1 -2 0 0 1 1 1 2 -1 -3 -3 -2 1
-3 11 2 6 -3 -2 -2 -2 3 -0 -4 1 0 -0 -3 -3 -5 -1 -2 -2 -1 -4 -1 1 1 -2 -1 1 0 0 2 3 0 1 1 3 1 2 2 2 -1 -5 2
-5 19 15 6 6 -1 -0 -5 1 -2 -5 -1 0 -1 1 -0 -3 3 -1 -1 -1 -3 -3 -1 -1 2 -2 -1 -0 -0 0 2 2 2 0 2 -3 -5 -2 -1 3 0 -2
Height
1540 1542 1545 1543 1538 1537 1538 1538 1538 1539 1539 1539 1541 1541 1542 1543 1544 1544 1545 1546 1547 1549 1551 1552 1553 1554 1555 1556 1555 1557 1558 1557 1555 1552 1552 1554 1554 1552 1547 1547 1551 1551 1553
1540 1543 1543 1539 1536 1537 1538 1538 1537 1537 1538 1539 1539 1539 1539 1540 1541 1541 1541 1542 1544 1545 1546 1548 1549 1551 1551 1551 1551 1550 1552 1552 1550 1549 1548 1548 1550 1550 1549 1548 1549 1550 1549
1537 1536 1535 1535 1536 1537 1537 1537 1537 1537 1536 1536 1537 1537 1537 1537 1537 1537 1538 1538 1539 1540 1541 1542 1543 1545 1545 1547 1546 1544 1545 1546 1545 1544 1544 1542 1544 1547 1547 1546 1546 1545 1546
1530 1531 1533 1535 1536 1537 1536 1536 1536 1536 1535 1535 1535 1534 1535 1534 1534 1534 1533 1533 1534 1534 1535 1536 1536 1537 1537 1538 1539 1538 1538 1539 1539 1538 1538 1539 1539 1539 1541 1542 1541 1540 1541
1530 1532 1534 1535 1536 1536 1535 1534 1534 1534 1534 1533 1532 1532 1532 1532 1532 1531 1531 1530 1529 1529 1528 1529 1529 1530 1531 1531 1532 1532 1533 1533 1533 1532 1531 1531 1533 1535 1536 1535 1535 1535 1533
1531 1532 1533 1533 1533 1533 1533 1532 1532 1531 1531 1530 1529 1528 1528 1528 1528 1527 1527 1527 1526 1525 1525 1524 1524 1524 1524 1524 1524 1525 1526 1525 1526 1527 1525 1522 1522 1525 1526 1526 1526 1527 1527
1529 1531 1531 1530 1529 1529 1529 1529 1528 1528 1527 1526 1525 1524 1523 1523 1523 1523 1522 1521 1521 1520 1520 1520 1519 1518 1518 1517 1516 1516 1516 1517 1517 1517 1515 1515 1514 1516 1519 1519 1520 1520 1520
1528 1527 1526 1527 1527 1527 1526 1525 1525 1524 1524 1522 1521 1520 1519 1518 1517 1516 1516 1515 1514 1514 1514 1513 1512 1512 1511 1510 1509 1508 1508 1508 1508 1508 1508 1508 1508 1508 1509 1511 1512 1513 1512
1525 1524 1524 1524 1524 1523 1523 1522 1521 1520 1519 1517 1516 1516 1516 1516 1514 1513 1511 1509 1508 1507 1507 1507 1506 1506 1506 1505 1502 1500 1499 1499 1501 1500 1499 1499 1500 1500 1502 1502 1502 1503 1501
1522 1522 1522 1520 1519 1519 1518 1517 1516 1515 1514 1513 1512 1513 1513 1512 1510 1508 1506 1504 1502 1501 1501 1501 1501 1500 1500 1498 1496 1493 1491 1490 1491 1491 1491 1491 1491 1492 1493 1494 1494 1493 1494
1519 1518 1518 1516 1516 1515 1514 1514 1513 1512 1512 1511 1510 1510 1510 1509 1507 1504 1501 1500 1497 1496 1495 1494 1494 1493 1492 1491 1490 1488 1487 1485 1483 1481 1481 1482 1482 1483 1484 1485 1485 1485 1484
1516 1514 1514 1513 1513 1512 1512 1512 1511 1510 1510 1509 1508 1507 1506 1504 1501 1500 1499 1497 1495 1493 1491 1489 1488 1487 1484 1484 1482 1481 1479 1477 1475 1474 1473 1473 1473 1474 1475 1476 1476 1474 1473
1512 1512 1512 1511 1511 1511 1509 1509 1508 1507 1506 1505 1503 1502 1501 1500 1498 1496 1495 1493 1490 1487 1486 1484 1482 1480 1478 1476 1474 1473 1472 1470 1468 1465 1464 1464 1465 1464 1464 1464 1464 1464 1463
1510 1510 1510 1511 1511 1509 1506 1506 1506 1505 1503 1501 1500 1499 1498 1495 1493 1490 1488 1485 1483 1481 1479 1477 1475 1473 1471 1468 1465 1464 1463 1461 1460 1459 1458 1456 1456 1455 1455 1456 1454 1454 1453
1508 1508 1510 1510 1509 1508 1506 1506 1505 1504 1502 1501 1500 1498 1495 1492 1488 1484 1480 1478 1475 1473 1471 1468 1466 1464 1462 1460 1458 1457 1456 1455 1454 1453 1451 1450 1449 1447 1446 1446 1444 1445 1445
1507 1507 1508 1509 1507 1506 1505 1505 1504 1503 1502 1501 1500 1498 1495 1491 1487 1483 1479 1476 1473 1469 1466 1464 1461 1460 1458 1456 1454 1451 1450 1449 1448 1446 1444 1443 1442 1441 1439 1438 1437 1436 1435
1507 1507 1506 1506 1506 1505 1505 1504 1502 1502 1501 1499 1497 1496 1493 1489 1486 1482 1477 1474 1470 1468 1465 1462 1460 1458 1455 1452 1450 1447 1445 1443 1441 1439 1437 1436 1434 1433 1432 1429 1428 1427 1425
1507 1505 1507 1505 1505 1504 1503 1502 1502 1501 1499 1498 1496 1494 1493 1488 1484 1480 1476 1473 1469 1466 1465 1462 1459 1455 1451 1447 1445 1442 1439 1437 1435 1433 1430 1428 1426 1424 1422 1420 1419 1417 1417
1505 1504 1504 1503 1503 1503 1502 1501 1501 1500 1498 1496 1494 1494 1491 1488 1483 1479 1475 1472 1470 1468 1465 1462 1459 1454 1450 1446 1442 1439 1436 1433 1430 1427 1425 1421 1418 1416 1414 1412 1410 1409 1409
1503 1504 1503 1502 1502 1501 1499 1499 1500 1498 1497 1495 1494 1492 1490 1488 1483 1480 1476 1473 1471 1469 1466 1463 1459 1455 1450 1446 1442 1438 1434 1429 1425 1422 1418 1415 1413 1410 1408 1406 1404 1401 1400
1502 1502 1502 1502 1500 1499 1498 1498 1498 1496 1495 1494 1492 1490 1488 1485 1482 1479 1477 1474 1471 1469 1466 1464 1460 1455 1451 1447 1443 1437 1432 1428 1424 1420 1416 1412 1407 1403 1401 1399 1398 1396 1394
1500 1501 1501 1500 1499 1498 1497 1497 1496 1494 1493 1492 1490 1489 1487 1485 1482 1479 1478 1474 1471 1469 1467 1464 1461 1457 1453 1448 1443 1437 1433 1428 1423 1419 1414 1409 1404 1399 1394 1392 1390 1388 1388
1499 1499 1499 1498 1497 1497 1496 1496 1495 1493 1492 1491 1490 1488 1486 1484 1481 1479 1477 1475 1472 1469 1466 1463 1460 1456 1452 1449 1444 1439 1434 1429 1424 1418 1413 1408 1402 1396 1391 1386 1384 1382 1382
1497 1497 1497 1496 1496 1495 1495 1495 1493 1492 1491 1489 1487 1486 1484 1483 1480 1478 1475 1473 1470 1467 1465 1462 1459 1455 1452 1449 1444 1440 1434 1429 1424 1418 1412 1407 1402 1397 1391 1385 1380 1376 1374
1493 1492 1494 1493 1493 1493 1493 1492 1491 1490 1488 1487 1485 1484 1481 1479 1478 1476 1474 1471 1469 1466 1463 1461 1458 1455 1451 1447 1443 1438 1434 1429 1423 1418 1412 1406 1401 1396 1390 1386 1382 1376 1371
1491 1492 1492 1491 1491 1490 1490 1490 1489 1488 1486 1485 1483 1481 1479 1477 1475 1474 1472 1469 1466 1463 1461 1458 1455 1452 1448 1444 1440 1436 1432 1427 1422 1417 1412 1407 1401 1395 1391 1387 1382 1377 1372